Location: Flotzheim
(48.8375°N, 10.8136°E)
Time: 03:17:36
(UTC+00:00)

Okean-O - Pass Details

Date: 23 January 2021
Orbit: 638 x 641 km, 98.2° (Epoch: 26 February)

Event Time Altitude Azimuth Distance (km) Brightness Sun altitude
Rises 17:40:16 0° 159° (SSE) 2,935 5.9 -16.2°
Reaches altitude 10° 17:42:28 10° 158° (SSE) 2,030 5.1 -16.6°
Maximum altitude 17:46:53 75° 74° (ENE) 668 2.5 -17.3°
Drops below altitude 10° 17:51:20 10° 349° (N) 2,046 5.2 -18.0°
Sets 17:53:33 0° 348° (NNW) 2,960 6.1 -18.4°
